sat.trackr.live / text

‹ back to catalog

STARLINK-35039

NORAD 65451 · 2025-194T

PAYLOAD ACTIVE UNKNOWN

§ Identity

Operator
Country
US
Launch date
2025-09-03
Launch site
AFWTR
Launch vehicle
Mass (kg)
RCS (m²)

Purposes: comms

External: N2YO · Heavens-Above · Gunter

§ Orbital elements

Epoch: 2026-05-25T03:42:15.342336Z

Period
95.64 min
Inclination
97.4504°
Eccentricity
0.0002151
Mean motion
15.05652170 rev/d
Perigee alt
548.0 km
Apogee alt
551.0 km
Semi-major
6,927.6 km
B*
1.0973e-4
RAAN
359.3829°
Arg perigee
86.0738°
Mean anomaly
274.0735°
Rev number
4,115

§ Raw data

STARLINK-350391 65451U 25194T   26145.15434424  .00001525  00000+0  10973-3 0  99922 65451  97.4504 359.3829 0002151  86.0738 274.0735 15.05652170 41153

JSON: /api/v1/satellites/65451 · /tle

For live sub-satellite position, see the globe view (requires WebGL).

§ Visibility from observer

Set your observer location to see the next 7 days of passes ≥ 10°. The values pass through the URL so the page stays shareable.

No JS? Fill the form by hand. The geolocation button needs JavaScript.